Time,TemperatureF,DewpointF,PressureIn,WindDirection,WindDirectionDegrees,WindSpeedMPH,WindSpeedGustMPH,Humidity,HourlyPrecipIn,Conditions,Clouds,dailyrainin,SoftwareType,DateUTC
2013-02-14 00:02:00,31.0,29.0,29.68,North,352,0.0,0.0,92,0.00,,,0.00,,2013-02-14 05:02:00,
2013-02-14 00:11:00,31.0,29.0,29.68,North,352,0.0,0.0,92,0.00,,,0.00,,2013-02-14 05:11:00,
2013-02-14 00:22:00,31.0,29.0,29.69,North,352,0.0,0.0,92,0.00,,,0.00,,2013-02-14 05:22:00,
2013-02-14 00:32:00,31.0,29.0,29.68,North,352,0.0,0.0,93,0.00,,,0.00,,2013-02-14 05:32:00,
2013-02-14 00:42:00,31.0,29.0,29.68,North,352,0.0,0.0,93,0.00,,,0.00,,2013-02-14 05:42:00,
2013-02-14 00:52:00,31.0,29.0,29.68,North,352,0.0,0.0,93,0.00,,,0.00,,2013-02-14 05:52:00,
2013-02-14 01:02:00,31.0,29.0,29.67,North,352,0.0,0.0,94,0.00,,,0.00,,2013-02-14 06:02:00,
2013-02-14 01:11:00,31.0,29.0,29.67,North,352,0.0,0.0,94,0.00,,,0.00,,2013-02-14 06:11:00,
2013-02-14 01:21:00,31.0,29.0,29.67,North,352,0.0,0.0,94,0.00,,,0.00,,2013-02-14 06:21:00,
2013-02-14 01:32:00,31.0,29.0,29.67,North,353,0.0,0.0,93,0.00,,,0.00,,2013-02-14 06:32:00,
2013-02-14 01:42:00,31.0,29.0,29.67,North,353,0.0,0.0,93,0.00,,,0.00,,2013-02-14 06:42:00,
2013-02-14 01:51:00,31.0,29.0,29.67,North,352,0.0,0.0,93,0.00,,,0.00,,2013-02-14 06:51:00,
2013-02-14 02:01:00,30.0,28.0,29.67,North,352,0.0,0.0,93,0.00,,,0.00,,2013-02-14 07:01:00,
2013-02-14 02:11:00,30.0,28.0,29.68,North,353,0.0,0.0,93,0.00,,,0.00,,2013-02-14 07:11:00,
2013-02-14 02:21:00,30.0,28.0,29.68,North,353,0.0,0.0,93,0.00,,,0.00,,2013-02-14 07:21:00,
2013-02-14 02:32:00,30.0,28.0,29.68,North,353,0.0,0.0,94,0.00,,,0.00,,2013-02-14 07:32:00,
2013-02-14 02:42:00,30.0,28.0,29.68,North,353,0.0,0.0,94,0.00,,,0.00,,2013-02-14 07:42:00,
2013-02-14 02:51:00,29.0,27.0,29.69,North,352,0.0,0.0,94,0.00,,,0.00,,2013-02-14 07:51:00,
2013-02-14 03:01:00,28.0,27.0,29.70,North,353,0.0,0.0,94,0.00,,,0.00,,2013-02-14 08:01:00,
2013-02-14 03:11:00,28.0,27.0,29.70,North,353,0.0,0.0,94,0.00,,,0.00,,2013-02-14 08:11:00,
2013-02-14 03:22:00,28.0,27.0,29.71,North,353,0.0,0.0,95,0.00,,,0.00,,2013-02-14 08:22:00,
2013-02-14 03:32:00,28.0,27.0,29.71,North,352,0.0,0.0,95,0.00,,,0.00,,2013-02-14 08:32:00,
2013-02-14 03:43:00,28.0,27.0,29.71,North,352,0.0,0.0,95,0.00,,,0.00,,2013-02-14 08:43:00,
2013-02-14 03:52:00,28.0,27.0,29.72,North,353,0.0,0.0,95,0.00,,,0.00,,2013-02-14 08:52:00,
2013-02-14 04:02:00,28.0,27.0,29.71,North,352,0.0,0.0,96,0.00,,,0.00,,2013-02-14 09:02:00,
2013-02-14 04:11:00,28.0,27.0,29.72,North,352,0.0,0.0,96,0.00,,,0.00,,2013-02-14 09:11:00,
2013-02-14 04:21:00,28.0,27.0,29.72,North,352,0.0,0.0,96,0.00,,,0.00,,2013-02-14 09:21:00,
2013-02-14 04:32:00,28.0,27.0,29.73,North,352,0.0,0.0,96,0.00,,,0.00,,2013-02-14 09:32:00,
2013-02-14 04:42:00,28.0,27.0,29.73,North,352,0.0,0.0,96,0.00,,,0.00,,2013-02-14 09:42:00,
2013-02-14 04:51:00,27.0,26.0,29.74,North,352,0.0,0.0,96,0.00,,,0.00,,2013-02-14 09:51:00,
2013-02-14 05:02:00,27.0,26.0,29.74,North,352,0.0,0.0,96,0.00,,,0.00,,2013-02-14 10:02:00,
2013-02-14 05:11:00,26.0,25.0,29.74,North,352,0.0,0.0,96,0.00,,,0.00,,2013-02-14 10:11:00,
2013-02-14 05:21:00,26.0,25.0,29.74,North,352,0.0,0.0,96,0.00,,,0.00,,2013-02-14 10:21:00,
2013-02-14 05:32:00,26.0,25.0,29.74,North,353,0.0,0.0,96,0.00,,,0.00,,2013-02-14 10:32:00,
2013-02-14 05:42:00,26.0,25.0,29.74,North,353,0.0,0.0,96,0.00,,,0.00,,2013-02-14 10:42:00,
2013-02-14 05:52:00,25.0,24.0,29.75,North,352,0.0,0.0,96,0.00,,,0.00,,2013-02-14 10:52:00,
2013-02-14 06:02:00,25.0,24.0,29.75,North,352,0.0,0.0,95,0.00,,,0.00,,2013-02-14 11:02:00,
2013-02-14 06:11:00,24.0,23.0,29.76,North,353,0.0,0.0,96,0.00,,,0.00,,2013-02-14 11:11:00,
2013-02-14 06:21:00,24.0,23.0,29.76,North,353,0.0,0.0,96,0.00,,,0.00,,2013-02-14 11:21:00,
2013-02-14 06:32:00,24.0,23.0,29.77,North,356,0.0,0.0,96,0.00,,,0.00,,2013-02-14 11:32:00,
2013-02-14 06:42:00,24.0,23.0,29.77,North,356,0.0,0.0,96,0.00,,,0.00,,2013-02-14 11:42:00,
2013-02-14 06:52:00,24.0,23.0,29.78,North,359,0.0,0.0,96,0.00,,,0.00,,2013-02-14 11:52:00,
2013-02-14 07:02:00,23.0,22.0,29.78,North,359,0.0,0.0,96,0.00,,,0.00,,2013-02-14 12:02:00,
2013-02-14 07:12:00,23.0,22.0,29.78,North,359,0.0,0.0,96,0.00,,,0.00,,2013-02-14 12:12:00,
2013-02-14 07:22:00,23.0,22.0,29.79,North,359,0.0,0.0,96,0.00,,,0.00,,2013-02-14 12:22:00,
2013-02-14 07:32:00,23.0,22.0,29.80,North,359,0.0,0.0,96,0.00,,,0.00,,2013-02-14 12:32:00,
2013-02-14 07:42:00,23.0,22.0,29.81,North,359,0.0,0.0,96,0.00,,,0.00,,2013-02-14 12:42:00,
2013-02-14 07:53:00,23.0,22.0,29.81,North,359,0.0,0.0,96,0.00,,,0.00,,2013-02-14 12:53:00,
2013-02-14 08:02:00,23.0,22.0,29.81,North,359,0.0,0.0,96,0.00,,,0.00,,2013-02-14 13:02:00,
2013-02-14 08:11:00,23.0,22.0,29.81,North,359,0.0,0.0,96,0.00,,,0.00,,2013-02-14 13:11:00,
2013-02-14 08:21:00,24.0,23.0,29.83,North,359,0.0,0.0,97,0.00,,,0.00,,2013-02-14 13:21:00,
2013-02-14 08:32:00,26.0,25.0,29.84,North,359,0.0,0.0,97,0.00,,,0.00,,2013-02-14 13:32:00,
2013-02-14 08:42:00,26.0,25.0,29.84,North,359,0.0,0.0,97,0.00,,,0.00,,2013-02-14 13:42:00,
2013-02-14 08:52:00,28.0,27.0,29.84,North,359,0.0,0.0,97,0.00,,,0.00,,2013-02-14 13:52:00,
2013-02-14 09:01:00,31.0,29.0,29.85,North,357,0.0,0.0,93,0.00,,,0.00,,2013-02-14 14:01:00,
2013-02-14 09:11:00,33.0,28.0,29.85,North,356,0.0,0.0,81,0.00,,,0.01,,2013-02-14 14:11:00,
2013-02-14 09:21:00,33.0,28.0,29.85,North,356,0.0,0.0,81,0.00,,,0.01,,2013-02-14 14:21:00,
2013-02-14 09:32:00,35.0,28.0,29.85,North,354,0.0,0.0,74,0.08,,,0.02,,2013-02-14 14:32:00,
2013-02-14 09:42:00,35.0,28.0,29.85,North,354,0.0,0.0,74,0.08,,,0.02,,2013-02-14 14:42:00,
2013-02-14 09:52:00,38.0,28.0,29.85,North,353,0.0,0.0,67,0.05,,,0.04,,2013-02-14 14:52:00,
2013-02-14 10:02:00,38.0,27.0,29.85,North,353,0.0,0.0,65,0.04,,,0.04,,2013-02-14 15:02:00,
2013-02-14 10:11:00,38.0,27.0,29.86,North,353,0.0,0.0,64,0.00,,,0.04,,2013-02-14 15:11:00,
2013-02-14 10:21:00,38.0,27.0,29.86,North,353,0.0,0.0,64,0.00,,,0.04,,2013-02-14 15:21:00,
2013-02-14 10:32:00,39.0,28.0,29.86,North,353,0.0,0.0,65,0.00,,,0.04,,2013-02-14 15:32:00,
2013-02-14 10:42:00,39.0,28.0,29.86,North,353,0.0,0.0,65,0.00,,,0.04,,2013-02-14 15:42:00,
2013-02-14 10:52:00,39.0,27.0,29.86,North,352,0.0,0.0,61,0.00,,,0.04,,2013-02-14 15:52:00,
2013-02-14 11:02:00,39.0,25.0,29.86,North,352,0.0,0.0,57,0.00,,,0.04,,2013-02-14 16:02:00,
2013-02-14 11:11:00,40.0,26.0,29.87,North,352,0.0,0.0,56,0.00,,,0.04,,2013-02-14 16:11:00,
2013-02-14 11:21:00,40.0,26.0,29.87,North,352,0.0,0.0,56,0.00,,,0.04,,2013-02-14 16:21:00,
2013-02-14 11:32:00,40.0,25.0,29.87,North,350,0.0,0.0,54,0.00,,,0.04,,2013-02-14 16:32:00,
2013-02-14 11:42:00,40.0,25.0,29.87,North,350,0.0,0.0,54,0.00,,,0.04,,2013-02-14 16:42:00,
2013-02-14 11:52:00,40.0,25.0,29.86,North,350,0.0,0.0,55,0.00,,,0.04,,2013-02-14 16:52:00,
2013-02-14 12:01:00,39.0,25.0,29.86,North,350,0.0,0.0,56,0.00,,,0.04,,2013-02-14 17:01:00,
2013-02-14 12:11:00,40.0,25.0,29.86,North,350,0.0,0.0,54,0.00,,,0.04,,2013-02-14 17:11:00,
2013-02-14 12:21:00,40.0,25.0,29.86,North,350,0.0,0.0,54,0.00,,,0.04,,2013-02-14 17:21:00,
2013-02-14 12:32:00,40.0,25.0,29.86,North,350,0.0,0.0,54,0.00,,,0.04,,2013-02-14 17:32:00,
2013-02-14 12:42:00,40.0,25.0,29.86,North,350,0.0,0.0,54,0.00,,,0.04,,2013-02-14 17:42:00,
2013-02-14 12:52:00,40.0,24.0,29.85,North,350,0.0,0.0,53,0.00,,,0.04,,2013-02-14 17:52:00,
2013-02-14 13:01:00,40.0,25.0,29.85,North,354,0.0,0.0,54,0.00,,,0.04,,2013-02-14 18:01:00,
2013-02-14 13:11:00,40.0,25.0,29.85,North,354,0.0,0.0,54,0.00,,,0.04,,2013-02-14 18:11:00,
2013-02-14 13:23:00,40.0,24.0,29.85,North,354,0.0,0.0,52,0.00,,,0.04,,2013-02-14 18:23:00,
2013-02-14 13:32:00,42.0,24.0,29.85,North,354,0.0,0.0,48,0.00,,,0.04,,2013-02-14 18:32:00,
2013-02-14 13:42:00,42.0,24.0,29.85,North,354,0.0,0.0,48,0.00,,,0.04,,2013-02-14 18:42:00,
2013-02-14 13:52:00,43.0,24.0,29.84,North,354,0.0,0.0,47,0.00,,,0.04,,2013-02-14 18:52:00,
2013-02-14 14:02:00,43.0,25.0,29.84,North,354,0.0,0.0,48,0.00,,,0.04,,2013-02-14 19:02:00,
2013-02-14 14:11:00,44.0,24.0,29.85,North,356,0.0,0.0,45,0.00,,,0.04,,2013-02-14 19:11:00,
2013-02-14 14:22:00,44.0,24.0,29.85,North,356,0.0,0.0,45,0.00,,,0.04,,2013-02-14 19:22:00,
2013-02-14 14:32:00,44.0,23.0,29.85,North,356,0.0,0.0,44,0.00,,,0.04,,2013-02-14 19:32:00,
2013-02-14 14:42:00,44.0,23.0,29.85,North,356,0.0,0.0,44,0.00,,,0.04,,2013-02-14 19:42:00,
2013-02-14 14:52:00,43.0,23.0,29.86,North,356,0.0,0.0,45,0.00,,,0.04,,2013-02-14 19:52:00,
2013-02-14 15:01:00,43.0,22.0,29.86,North,357,0.0,0.0,42,0.00,,,0.04,,2013-02-14 20:01:00,
2013-02-14 15:11:00,43.0,22.0,29.86,North,356,0.0,0.0,43,0.00,,,0.04,,2013-02-14 20:11:00,
2013-02-14 15:21:00,43.0,22.0,29.86,North,356,0.0,0.0,43,0.00,,,0.04,,2013-02-14 20:21:00,
2013-02-14 15:32:00,44.0,23.0,29.86,North,357,0.0,0.0,43,0.00,,,0.04,,2013-02-14 20:32:00,
2013-02-14 15:42:00,44.0,23.0,29.86,North,357,0.0,0.0,43,0.00,,,0.04,,2013-02-14 20:42:00,
2013-02-14 15:52:00,43.0,23.0,29.87,North,0,0.0,0.0,45,0.00,,,0.04,,2013-02-14 20:52:00,
2013-02-14 16:02:00,43.0,24.0,29.87,North,0,0.0,0.0,46,0.00,,,0.04,,2013-02-14 21:02:00,
2013-02-14 16:11:00,43.0,24.0,29.87,North,0,0.0,0.0,46,0.00,,,0.04,,2013-02-14 21:11:00,
2013-02-14 16:21:00,42.0,23.0,29.87,North,0,0.0,0.0,46,0.00,,,0.04,,2013-02-14 21:21:00,
2013-02-14 16:31:00,42.0,23.0,29.87,North,0,0.0,0.0,47,0.00,,,0.04,,2013-02-14 21:31:00,
2013-02-14 16:42:00,42.0,23.0,29.87,North,0,0.0,0.0,47,0.00,,,0.04,,2013-02-14 21:42:00,
2013-02-14 16:52:00,42.0,23.0,29.88,North,0,0.0,0.0,47,0.00,,,0.04,,2013-02-14 21:52:00,
2013-02-14 17:02:00,41.0,23.0,29.88,North,0,0.0,0.0,49,0.00,,,0.04,,2013-02-14 22:02:00,
2013-02-14 17:11:00,40.0,23.0,29.88,North,0,0.0,0.0,50,0.00,,,0.04,,2013-02-14 22:11:00,
2013-02-14 17:21:00,40.0,23.0,29.88,North,0,0.0,0.0,50,0.00,,,0.04,,2013-02-14 22:21:00,
2013-02-14 17:32:00,40.0,23.0,29.88,North,0,0.0,0.0,50,0.00,,,0.04,,2013-02-14 22:32:00,
2013-02-14 17:42:00,40.0,23.0,29.88,North,0,0.0,0.0,50,0.00,,,0.04,,2013-02-14 22:42:00,
2013-02-14 17:52:00,39.0,24.0,29.90,North,0,0.0,0.0,55,0.00,,,0.04,,2013-02-14 22:52:00,
2013-02-14 18:01:00,38.0,25.0,29.90,North,0,0.0,0.0,59,0.00,,,0.04,,2013-02-14 23:01:00,
2013-02-14 18:11:00,38.0,25.0,29.90,North,0,0.0,0.0,59,0.00,,,0.04,,2013-02-14 23:11:00,
2013-02-14 18:21:00,36.0,25.0,29.91,North,0,0.0,0.0,64,0.00,,,0.04,,2013-02-14 23:21:00,
2013-02-14 18:32:00,35.0,25.0,29.91,North,0,0.0,0.0,67,0.00,,,0.04,,2013-02-14 23:32:00,
2013-02-14 18:42:00,35.0,25.0,29.91,North,0,0.0,0.0,67,0.00,,,0.04,,2013-02-14 23:42:00,
2013-02-14 18:52:00,33.0,25.0,29.92,North,359,0.0,0.0,71,0.00,,,0.04,,2013-02-14 23:52:00,
2013-02-14 19:01:00,32.0,24.0,29.92,North,359,0.0,0.0,73,0.00,,,0.04,,2013-02-15 00:01:00,
2013-02-14 19:11:00,32.0,24.0,29.92,North,359,0.0,0.0,73,0.00,,,0.04,,2013-02-15 00:11:00,
2013-02-14 19:22:00,32.0,26.0,29.92,North,359,0.0,0.0,77,0.00,,,0.04,,2013-02-15 00:22:00,
2013-02-14 19:32:00,31.0,25.0,29.92,North,359,0.0,0.0,77,0.00,,,0.04,,2013-02-15 00:32:00,
2013-02-14 19:42:00,31.0,25.0,29.92,North,359,0.0,0.0,77,0.00,,,0.04,,2013-02-15 00:42:00,
2013-02-14 19:52:00,30.0,25.0,29.93,North,359,0.0,0.0,80,0.00,,,0.04,,2013-02-15 00:52:00,
2013-02-14 20:02:00,30.0,25.0,29.93,North,359,0.0,0.0,81,0.00,,,0.04,,2013-02-15 01:02:00,
2013-02-14 20:11:00,30.0,25.0,29.93,North,359,0.0,0.0,81,0.00,,,0.04,,2013-02-15 01:11:00,
2013-02-14 20:21:00,29.0,25.0,29.93,North,359,0.0,0.0,83,0.00,,,0.04,,2013-02-15 01:21:00,
2013-02-14 20:32:00,29.0,25.0,29.93,North,359,0.0,0.0,84,0.00,,,0.04,,2013-02-15 01:32:00,
2013-02-14 20:41:00,29.0,25.0,29.93,North,359,0.0,0.0,84,0.00,,,0.04,,2013-02-15 01:41:00,
2013-02-14 20:52:00,28.0,24.0,29.93,North,356,0.0,0.0,85,0.00,,,0.04,,2013-02-15 01:52:00,
2013-02-14 21:01:00,28.0,24.0,29.93,North,353,0.0,0.0,85,0.00,,,0.04,,2013-02-15 02:01:00,
2013-02-14 21:11:00,27.0,24.0,29.94,North,354,0.0,0.0,87,0.00,,,0.04,,2013-02-15 02:11:00,
2013-02-14 21:21:00,27.0,24.0,29.94,North,354,0.0,0.0,87,0.00,,,0.04,,2013-02-15 02:21:00,
2013-02-14 21:32:00,27.0,24.0,29.94,North,354,0.0,0.0,87,0.00,,,0.04,,2013-02-15 02:32:00,
2013-02-14 21:41:00,27.0,24.0,29.94,North,354,0.0,0.0,87,0.00,,,0.04,,2013-02-15 02:41:00,
2013-02-14 21:52:00,28.0,25.0,29.93,North,356,0.0,0.0,87,0.00,,,0.04,,2013-02-15 02:52:00,
2013-02-14 22:02:00,28.0,25.0,29.93,North,356,0.0,0.0,87,0.00,,,0.04,,2013-02-15 03:02:00,
2013-02-14 22:11:00,28.0,25.0,29.93,North,356,0.0,0.0,87,0.00,,,0.04,,2013-02-15 03:11:00,
2013-02-14 22:22:00,28.0,25.0,29.93,North,356,0.0,0.0,87,0.00,,,0.04,,2013-02-15 03:22:00,
2013-02-14 22:32:00,28.0,24.0,29.93,North,356,0.0,0.0,86,0.00,,,0.04,,2013-02-15 03:32:00,
2013-02-14 22:42:00,28.0,24.0,29.93,North,356,0.0,0.0,86,0.00,,,0.04,,2013-02-15 03:42:00,
2013-02-14 22:52:00,28.0,24.0,29.94,North,356,0.0,0.0,86,0.00,,,0.04,,2013-02-15 03:52:00,
2013-02-14 23:01:00,28.0,24.0,29.94,North,356,0.0,0.0,86,0.00,,,0.04,,2013-02-15 04:01:00,
2013-02-14 23:11:00,28.0,24.0,29.94,North,356,0.0,0.0,86,0.00,,,0.04,,2013-02-15 04:11:00,
2013-02-14 23:21:00,27.0,24.0,29.93,North,356,0.0,0.0,87,0.00,,,0.04,,2013-02-15 04:21:00,
2013-02-14 23:32:00,27.0,24.0,29.93,North,356,0.0,0.0,87,0.00,,,0.04,,2013-02-15 04:32:00,
2013-02-14 23:42:00,27.0,24.0,29.93,North,356,0.0,0.0,87,0.00,,,0.04,,2013-02-15 04:42:00,
2013-02-14 23:52:00,27.0,24.0,29.93,North,357,0.0,0.0,88,0.00,,,0.04,,2013-02-15 04:52:00,